Location: Tamazert
(32.6352°N, 5.2072°W)
Time: 04:39:50
(UTC+00:00)

Vanguard 2 - Pass Details

Date: 05 October 2022
Orbit: 553 x 2933 km, 32.9° (Epoch: 26 November)

Event Time Altitude Azimuth Distance (km) Brightness Sun altitude
Rises 11:16:48 0° 227° (SW) 3,833 11.3 50.5°
Reaches altitude 10° 11:19:08 10° 222° (SW) 3,122 11.0 50.7°
Maximum altitude 11:26:53 51° 148° (SSE) 2,022 12.2 51.2°
Drops below altitude 10° 11:39:38 10° 78° (ENE) 5,016 11.8 51.9°
Sets 11:44:26 0° 75° (ENE) 6,327 12.2 52.1°
